Tracking 20945 objects as of 8-Jul-2020
HD Live streaming from Space Station
objects crossing your sky now

FENGYUN 1C DEB

Track FENGYUN 1C DEB now!
10-day predictions


NORAD ID: 35167
Int'l Code: 1999-025DMX
Perigee: 641.0 km
Apogee: 1,003.5 km
Inclination: 98.5 °
Period: 101.2 minutes
Semi major axis: 7193 km
RCS: 0.0088 m2 (small)
Launch date: May 10, 1999
Source: People's Republic of China (PRC)
Launch site: Taiyaun Space Center, China (TSC)

Note: This is SATELLITE DEBRIS
aabbcc
Your satellite tracking list
Your tracking list is empty




NASA's NSSDC Master Catalog

Two Line Element Set (TLE):
1 35167U 99025DMX 20189.32405545  .00000217  00000-0  85995-4 0  9995
2 35167  98.5179 224.1785 0251956 263.8700  93.3722 14.23024364615801
Source of the keplerian elements: AFSPC